SILU-1 (SILKROAD 1) (42903 NORAD) Tracking and Keplerian Element Data

This shows tracking and keplerian element data for the satellite.

Feedback or suggestion? Click here.




ElementValue
Catalog42903
NameSILU-1 (SILKROAD 1)
Epoch Orbit7433
Epoch Day322.88288661
Epoch Year2018
RAAN105.4595
Inclination42.7733
Eccentricity0.0016212
Argument of Perigee318.5453
Mean Anonmoly178.035
Mean Motion15.8135836
Decay Rate0.00040675
L11 42903U 17021F 18322.88288661 .00040675 00000-0 19894-3 0 9998
L22 42903 42.7733 105.4595 0016212 318.5453 178.0350 15.81358360 74337

Live tracking and technical data element details for SILU-1 (SILKROAD 1) (NORAD 42903). SILU-1 (SILKROAD 1) can be tracked NOW for your location showing map with azimuth and elevation plus other details from your city location.

Track the satellite on the map from your city or location and see movement details for azimuth, elevation, latitude, longitude, range, height, and movement on the map or in text.







IsCatalogInMostPopularTable: catalog: 42903, numindb: 168
Update: records affected: 1



GetName: 42903 SILU-1 (SILKROAD 1)

Hit Count: updated at: Mon, 19 Nov 2018 13:23:41 GMT